Hourly Weather Chajczyny

Today, 25 June, Friday

Time Temperature Precipitation Wind Pressure Humidity
00:00 +19°C° 0.1 mm 2 mps 744 mmHg 94%
01:00 +19°C° 0 mm 3 mps 744 mmHg 95%
02:00 +18°C° 0 mm 3 mps 744 mmHg 96%
03:00 +18°C° 0 mm 3 mps 744 mmHg 97%
04:00 +17°C° 0 mm 2 mps 744 mmHg 98%
05:00 +18°C° 0 mm 3 mps 744 mmHg 94%
06:00 +18°C° 0 mm 3 mps 744 mmHg 91%
07:00 +18°C° 0 mm 3 mps 744 mmHg 88%
08:00 +18°C° 0.1 mm 3 mps 745 mmHg 87%
09:00 +19°C° 0.1 mm 3 mps 745 mmHg 86%
10:00 +19°C° 0.1 mm 3 mps 745 mmHg 86%
11:00 +19°C° 0.4 mm 3 mps 745 mmHg 84%
12:00 +20°C° 0.4 mm 2 mps 745 mmHg 82%
13:00 +20°C° 0.4 mm 2 mps 745 mmHg 80%
14:00 +21°C° 0.1 mm 2 mps 745 mmHg 76%
15:00 +22°C° 0.1 mm 3 mps 745 mmHg 71%
16:00 +22°C° 0.1 mm 3 mps 744 mmHg 67%
17:00 +22°C° 0 mm 3 mps 744 mmHg 70%
18:00 +21°C° 0 mm 2 mps 744 mmHg 72%
19:00 +21°C° 0 mm 2 mps 744 mmHg 75%
20:00 +21°C° 0 mm 1 mps 745 mmHg 77%
21:00 +20°C° 0 mm 1 mps 745 mmHg 80%
22:00 +17°C° 0 mm 0 mps 745 mmHg 82%
23:00 +19°C° 0 mm 1 mps 745 mmHg 84%

Tomorrow, 26 June, Saturday

Time Temperature Precipitation Wind Pressure Humidity
00:00 +17°C° 0 mm 2 mps 745 mmHg 86%
01:00 +17°C° 0 mm 2 mps 745 mmHg 88%
02:00 +17°C° 0 mm 2 mps 745 mmHg 89%
03:00 +16°C° 0 mm 2 mps 745 mmHg 91%
04:00 +16°C° 0 mm 2 mps 745 mmHg 92%
05:00 +17°C° 0.2 mm 2 mps 746 mmHg 88%
06:00 +19°C° 0.2 mm 2 mps 746 mmHg 84%
07:00 +20°C° 0.2 mm 2 mps 746 mmHg 80%
08:00 +21°C° 1.1 mm 2 mps 746 mmHg 76%
09:00 +21°C° 1.1 mm 2 mps 746 mmHg 72%
10:00 +23°C° 1.1 mm 2 mps 746 mmHg 68%
11:00 +24°C° 1.3 mm 2 mps 746 mmHg 68%
12:00 +24°C° 1.3 mm 3 mps 746 mmHg 67%
13:00 +24°C° 1.3 mm 3 mps 746 mmHg 66%
14:00 +24°C° 0.9 mm 3 mps 746 mmHg 67%
15:00 +23°C° 0.9 mm 4 mps 746 mmHg 67%
16:00 +23°C° 0.9 mm 4 mps 746 mmHg 68%
17:00 +22°C° 0.5 mm 3 mps 746 mmHg 71%
18:00 +21°C° 0.5 mm 3 mps 746 mmHg 75%
19:00 +21°C° 0.5 mm 2 mps 746 mmHg 78%
20:00 +20°C° 0 mm 2 mps 746 mmHg 79%
21:00 +20°C° 0 mm 1 mps 746 mmHg 80%
22:00 +19°C° 0 mm 1 mps 746 mmHg 81%
23:00 +18°C° 0 mm 1 mps 746 mmHg 81%

Day after tomorrow, 27 June, Sunday

Time Temperature Precipitation Wind Pressure Humidity
00:00 +18°C° 0 mm 1 mps 746 mmHg 80%
01:00 +16°C° 0 mm 2 mps 746 mmHg 79%
02:00 +16°C° 0 mm 1 mps 747 mmHg 79%
03:00 +16°C° 0 mm 1 mps 747 mmHg 79%
04:00 +15°C° 0 mm 1 mps 747 mmHg 78%
05:00 +16°C° 0 mm 1 mps 747 mmHg 75%
06:00 +18°C° 0 mm 2 mps 747 mmHg 71%
07:00 +19°C° 0 mm 2 mps 747 mmHg 68%
08:00 +21°C° 0 mm 2 mps 747 mmHg 63%
09:00 +23°C° 0 mm 2 mps 747 mmHg 58%
10:00 +24°C° 0 mm 2 mps 747 mmHg 52%
11:00 +25°C° 0 mm 3 mps 747 mmHg 51%
12:00 +25°C° 0 mm 3 mps 747 mmHg 50%
13:00 +25°C° 0 mm 3 mps 746 mmHg 49%
14:00 +25°C° 0 mm 3 mps 746 mmHg 50%
15:00 +25°C° 0 mm 2 mps 746 mmHg 50%
16:00 +25°C° 0 mm 2 mps 746 mmHg 50%
17:00 +25°C° 0 mm 2 mps 746 mmHg 55%
18:00 +24°C° 0 mm 1 mps 746 mmHg 60%
19:00 +23°C° 0 mm 1 mps 746 mmHg 65%
20:00 +22°C° 0 mm 1 mps 746 mmHg 66%
21:00 +21°C° 0 mm 1 mps 746 mmHg 68%
22:00 +19°C° 0 mm 1 mps 746 mmHg 69%
23:00 +19°C° 0 mm 1 mps 746 mmHg 70%

28 June, Monday

Time Temperature Precipitation Wind Pressure Humidity
00:00 +17°C° 0 mm 0 mps 746 mmHg 71%
01:00 +16°C° 0 mm 0 mps 746 mmHg 73%
02:00 +16°C° 0 mm 0 mps 746 mmHg 74%
03:00 +18°C° 0 mm 1 mps 746 mmHg 75%
04:00 +18°C° 0 mm 1 mps 746 mmHg 76%
05:00 +19°C° 0 mm 1 mps 746 mmHg 73%
06:00 +20°C° 0 mm 1 mps 746 mmHg 69%
07:00 +22°C° 0 mm 1 mps 746 mmHg 66%
08:00 +23°C° 0 mm 1 mps 747 mmHg 61%
09:00 +24°C° 0 mm 1 mps 747 mmHg 57%
10:00 +26°C° 0 mm 1 mps 747 mmHg 52%
11:00 +26°C° 0 mm 1 mps 746 mmHg 49%
12:00 +27°C° 0 mm 1 mps 746 mmHg 46%
13:00 +28°C° 0 mm 1 mps 746 mmHg 43%
14:00 +28°C° 0 mm 1 mps 746 mmHg 43%
15:00 +28°C° 0 mm 1 mps 746 mmHg 43%
16:00 +28°C° 0 mm 1 mps 746 mmHg 43%
17:00 +27°C° 0 mm 1 mps 745 mmHg 48%
18:00 +26°C° 0 mm 1 mps 745 mmHg 54%
19:00 +25°C° 0 mm 2 mps 745 mmHg 60%
20:00 +23°C° 0 mm 2 mps 745 mmHg 61%
21:00 +21°C° 0 mm 2 mps 745 mmHg 63%
22:00 +20°C° 0 mm 3 mps 745 mmHg 64%
23:00 +19°C° 0 mm 3 mps 745 mmHg 65%

29 June, Tuesday

Time Temperature Precipitation Wind Pressure Humidity
00:00 +19°C° 0 mm 3 mps 744 mmHg 65%
01:00 +18°C° 0 mm 3 mps 744 mmHg 66%
02:00 +18°C° 0 mm 3 mps 744 mmHg 67%
03:00 +18°C° 0 mm 3 mps 744 mmHg 69%
04:00 +17°C° 0 mm 3 mps 743 mmHg 71%
05:00 +19°C° 0 mm 3 mps 743 mmHg 69%
06:00 +21°C° 0 mm 4 mps 743 mmHg 66%
07:00 +22°C° 0 mm 4 mps 743 mmHg 64%
08:00 +25°C° 0 mm 5 mps 743 mmHg 60%
09:00 +26°C° 0 mm 5 mps 743 mmHg 55%
10:00 +28°C° 0 mm 5 mps 743 mmHg 50%
11:00 +28°C° 0 mm 5 mps 743 mmHg 49%
12:00 +29°C° 0 mm 5 mps 742 mmHg 49%
13:00 +30°C° 0 mm 4 mps 742 mmHg 48%
14:00 +30°C° 0 mm 4 mps 742 mmHg 49%
15:00 +30°C° 0 mm 4 mps 741 mmHg 50%
16:00 +30°C° 0 mm 4 mps 741 mmHg 51%
17:00 +28°C° 0.3 mm 4 mps 741 mmHg 59%
18:00 +26°C° 0.3 mm 4 mps 741 mmHg 68%
19:00 +24°C° 0.3 mm 3 mps 741 mmHg 76%
20:00 +22°C° 0.1 mm 3 mps 741 mmHg 78%
21:00 +21°C° 0.1 mm 3 mps 741 mmHg 81%
22:00 +20°C° 0.1 mm 2 mps 741 mmHg 83%
23:00 +20°C° 0.1 mm 2 mps 740 mmHg 84%

30 June, Wednesday

Time Temperature Precipitation Wind Pressure Humidity
00:00 +20°C° 0.1 mm 2 mps 740 mmHg 85%
01:00 +19°C° 0.1 mm 2 mps 740 mmHg 86%
02:00 +19°C° 0 mm 2 mps 740 mmHg 88%
03:00 +19°C° 0 mm 2 mps 740 mmHg 89%
04:00 +19°C° 0 mm 2 mps 739 mmHg 91%
05:00 +20°C° 0.6 mm 3 mps 740 mmHg 89%
06:00 +21°C° 0.6 mm 3 mps 740 mmHg 86%
07:00 +22°C° 0.6 mm 3 mps 740 mmHg 83%
08:00 +24°C° 0 mm 2 mps 740 mmHg 80%
09:00 +25°C° 0 mm 2 mps 740 mmHg 76%
10:00 +26°C° 0 mm 1 mps 740 mmHg 73%
11:00 +25°C° 0.3 mm 2 mps 740 mmHg 74%
12:00 +25°C° 0.3 mm 4 mps 741 mmHg 76%
13:00 +25°C° 0.3 mm 5 mps 741 mmHg 77%
14:00 +25°C° 0.1 mm 5 mps 741 mmHg 75%
15:00 +25°C° 0.1 mm 5 mps 741 mmHg 74%
16:00 +26°C° 0.1 mm 6 mps 741 mmHg 72%
17:00 +25°C° 0 mm 5 mps 741 mmHg 74%
18:00 +23°C° 0 mm 5 mps 742 mmHg 75%
19:00 +22°C° 0 mm 5 mps 742 mmHg 77%
20:00 +21°C° 0 mm 4 mps 742 mmHg 79%
21:00 +21°C° 0 mm 3 mps 742 mmHg 80%
22:00 +20°C° 0 mm 3 mps 743 mmHg 81%
23:00 +19°C° 0 mm 3 mps 742 mmHg 84%
Show more

We Need Your Consent

Meteoprog and our Service Providers may store and access personal data such as cookies, device identifiers or other similar technologies on your device and process such data to personalise content and ads, as well as provide social media features and to analyse the traffic.

  • Store and/or access information on your device

    Cookies, device identifiers or other information can be stored or accessed on your device for the purposes indicated above.

  • Personalised ads and content, ad and content measurement, audience insights, and products development

    Ads and content can be personalised based on a profile. More data can be added to better personalise ads and content. Ad and content performance can be measured. Insights about the audience who saw the ads and content can be derived. Such data can be used to develop or improve user’s experience, systems and software.

By clicking ‘I Agree’ you will allow the use of indicated cookies, device identifiers, web beacons or other similar technologies. Your settings can be changed in the browser on your device.

For certain purposes, legitimate interests may be relied on, rather than consent. You can read more about this in our Privacy and Cookie Policy.